Time,TemperatureF,DewpointF,PressureIn,WindDirection,WindDirectionDegrees,WindSpeedMPH,WindSpeedGustMPH,Humidity,HourlyPrecipIn,Conditions,Clouds,dailyrainin,SoftwareType,DateUTC
2013-03-25 00:02:00,25.0,21.0,-100.00,North,0,0.0,2.0,84,-99.99,,,-99.99,,2013-03-25 04:02:00,
2013-03-25 00:13:00,25.0,22.0,-100.00,ESE,106,2.0,4.0,86,-99.99,,,-99.99,,2013-03-25 04:13:00,
2013-03-25 00:23:00,25.0,22.0,-100.00,SE,137,1.0,4.0,86,-99.99,,,-99.99,,2013-03-25 04:23:00,
2013-03-25 00:33:00,26.0,22.0,-100.00,WSW,246,2.0,2.0,84,-99.99,,,-99.99,,2013-03-25 04:33:00,
2013-03-25 00:43:00,25.0,21.0,-100.00,SE,131,0.0,2.0,85,-99.99,,,-99.99,,2013-03-25 04:43:00,
2013-03-25 00:52:00,24.0,21.0,-100.00,South,180,0.0,2.0,87,-99.99,,,-99.99,,2013-03-25 04:52:00,
2013-03-25 01:03:00,24.0,21.0,-100.00,South,180,0.0,2.0,87,-99.99,,,-99.99,,2013-03-25 05:03:00,
2013-03-25 01:12:00,24.0,21.0,-100.00,ESE,116,1.0,4.0,88,-99.99,,,-99.99,,2013-03-25 05:12:00,
2013-03-25 01:22:00,24.0,21.0,-100.00,ESE,116,1.0,4.0,88,-99.99,,,-99.99,,2013-03-25 05:22:00,
2013-03-25 01:32:00,23.0,20.0,-100.00,SW,218,0.0,2.0,88,-99.99,,,-99.99,,2013-03-25 05:32:00,
2013-03-25 01:42:00,22.0,20.0,-100.00,NNW,327,0.0,2.0,88,-99.99,,,-99.99,,2013-03-25 05:42:00,
2013-03-25 01:52:00,22.0,20.0,-100.00,NNE,19,0.0,2.0,90,-99.99,,,-99.99,,2013-03-25 05:52:00,
2013-03-25 02:02:00,21.0,19.0,-100.00,WSW,243,0.0,2.0,91,-99.99,,,-99.99,,2013-03-25 06:02:00,
2013-03-25 02:12:00,20.0,18.0,-100.00,SE,133,0.0,2.0,93,-99.99,,,-99.99,,2013-03-25 06:12:00,
2013-03-25 02:22:00,20.0,18.0,-100.00,SE,133,0.0,2.0,93,-99.99,,,-99.99,,2013-03-25 06:22:00,
2013-03-25 02:32:00,21.0,19.0,-100.00,WNW,292,0.0,2.0,94,-99.99,,,-99.99,,2013-03-25 06:32:00,
2013-03-25 02:42:00,21.0,19.0,-100.00,WNW,292,0.0,2.0,94,-99.99,,,-99.99,,2013-03-25 06:42:00,
2013-03-25 02:52:00,20.0,19.0,-100.00,WNW,284,0.0,2.0,94,-99.99,,,-99.99,,2013-03-25 06:52:00,
2013-03-25 03:02:00,20.0,19.0,-100.00,West,278,0.0,2.0,94,-99.99,,,-99.99,,2013-03-25 07:02:00,
2013-03-25 03:13:00,20.0,19.0,-100.00,WNW,291,0.0,0.0,94,-99.99,,,-99.99,,2013-03-25 07:13:00,
2013-03-25 03:22:00,19.0,18.0,-100.00,North,9,1.0,2.0,94,-99.99,,,-99.99,,2013-03-25 07:22:00,
2013-03-25 03:32:00,19.0,18.0,-100.00,NNE,31,1.0,2.0,95,-99.99,,,-99.99,,2013-03-25 07:32:00,
2013-03-25 03:42:00,19.0,18.0,-100.00,SSW,199,1.0,2.0,95,-99.99,,,-99.99,,2013-03-25 07:42:00,
2013-03-25 03:52:00,19.0,18.0,-100.00,NNW,327,0.0,2.0,95,-99.99,,,-99.99,,2013-03-25 07:52:00,
2013-03-25 04:03:00,19.0,18.0,-100.00,SSW,202,1.0,2.0,95,-99.99,,,-99.99,,2013-03-25 08:03:00,
2013-03-25 04:12:00,19.0,18.0,-100.00,NE,55,0.0,2.0,95,-99.99,,,-99.99,,2013-03-25 08:12:00,
2013-03-25 04:23:00,19.0,18.0,-100.00,NE,55,0.0,2.0,95,-99.99,,,-99.99,,2013-03-25 08:23:00,
2013-03-25 04:32:00,19.0,18.0,-100.00,NE,55,0.0,2.0,95,-99.99,,,-99.99,,2013-03-25 08:32:00,
2013-03-25 04:43:00,17.0,16.0,-100.00,SSW,205,0.0,2.0,95,-99.99,,,-99.99,,2013-03-25 08:43:00,
2013-03-25 04:52:00,16.0,15.0,-100.00,North,2,0.0,2.0,96,-99.99,,,-99.99,,2013-03-25 08:52:00,
2013-03-25 05:02:00,16.0,15.0,-100.00,North,2,0.0,2.0,96,-99.99,,,-99.99,,2013-03-25 09:02:00,
2013-03-25 05:13:00,16.0,15.0,-100.00,SW,221,1.0,4.0,96,-99.99,,,-99.99,,2013-03-25 09:13:00,
2013-03-25 05:22:00,16.0,15.0,-100.00,South,189,1.0,4.0,97,-99.99,,,-99.99,,2013-03-25 09:22:00,
2013-03-25 05:33:00,16.0,15.0,-100.00,WNW,301,0.0,2.0,97,-99.99,,,-99.99,,2013-03-25 09:33:00,
2013-03-25 05:43:00,15.0,14.0,-100.00,SSE,166,1.0,2.0,96,-99.99,,,-99.99,,2013-03-25 09:43:00,
2013-03-25 05:52:00,16.0,16.0,-100.00,NNE,32,2.0,4.0,97,-99.99,,,-99.99,,2013-03-25 09:52:00,
2013-03-25 06:03:00,16.0,15.0,-100.00,SSE,165,2.0,6.0,96,-99.99,,,-99.99,,2013-03-25 10:03:00,
2013-03-25 06:12:00,16.0,15.0,-100.00,SSE,165,2.0,6.0,96,-99.99,,,-99.99,,2013-03-25 10:12:00,
2013-03-25 06:22:00,16.0,15.0,-100.00,SSE,150,1.0,2.0,96,-99.99,,,-99.99,,2013-03-25 10:22:00,
2013-03-25 06:33:00,16.0,15.0,-100.00,SSE,150,1.0,2.0,96,-99.99,,,-99.99,,2013-03-25 10:33:00,
2013-03-25 06:42:00,16.0,15.0,-100.00,ENE,67,0.0,2.0,96,-99.99,,,-99.99,,2013-03-25 10:42:00,
2013-03-25 06:53:00,15.0,14.0,-100.00,WNW,283,0.0,0.0,95,-99.99,,,-99.99,,2013-03-25 10:53:00,
2013-03-25 07:03:00,15.0,14.0,-100.00,ENE,66,0.0,2.0,96,-99.99,,,-99.99,,2013-03-25 11:03:00,
2013-03-25 07:12:00,15.0,14.0,-100.00,NE,56,0.0,0.0,96,-99.99,,,-99.99,,2013-03-25 11:12:00,
2013-03-25 07:23:00,14.0,13.0,-100.00,WNW,293,0.0,2.0,95,-99.99,,,-99.99,,2013-03-25 11:23:00,
2013-03-25 07:32:00,14.0,13.0,-100.00,WNW,293,0.0,2.0,95,-99.99,,,-99.99,,2013-03-25 11:32:00,
2013-03-25 07:42:00,16.0,15.0,-100.00,West,279,0.0,0.0,96,-99.99,,,-99.99,,2013-03-25 11:42:00,
2013-03-25 07:52:00,16.0,15.0,-100.00,West,279,0.0,0.0,96,-99.99,,,-99.99,,2013-03-25 11:52:00,
2013-03-25 08:03:00,17.0,16.0,-100.00,WSW,239,0.0,2.0,94,-99.99,,,-99.99,,2013-03-25 12:03:00,
2013-03-25 08:13:00,19.0,17.0,-100.00,ENE,76,1.0,2.0,94,-99.99,,,-99.99,,2013-03-25 12:13:00,
2013-03-25 08:23:00,19.0,16.0,-100.00,South,185,0.0,2.0,90,-99.99,,,-99.99,,2013-03-25 12:23:00,
2013-03-25 08:32:00,20.0,17.0,-100.00,ESE,117,0.0,2.0,88,-99.99,,,-99.99,,2013-03-25 12:32:00,
2013-03-25 08:43:00,20.0,17.0,-100.00,NE,39,0.0,2.0,84,-99.99,,,-99.99,,2013-03-25 12:43:00,
2013-03-25 08:53:00,21.0,16.0,-100.00,West,278,0.0,2.0,81,-99.99,,,-99.99,,2013-03-25 12:53:00,
2013-03-25 09:03:00,23.0,18.0,-100.00,NNE,22,0.0,2.0,78,-99.99,,,-99.99,,2013-03-25 13:03:00,
2013-03-25 09:13:00,27.0,18.0,-100.00,ENE,72,0.0,2.0,69,-99.99,,,-99.99,,2013-03-25 13:13:00,
2013-03-25 09:23:00,25.0,18.0,-100.00,ENE,62,2.0,4.0,73,-99.99,,,-99.99,,2013-03-25 13:23:00,
2013-03-25 09:32:00,27.0,19.0,-100.00,ESE,110,0.0,0.0,71,-99.99,,,-99.99,,2013-03-25 13:32:00,
2013-03-25 09:43:00,27.0,19.0,-100.00,ESE,110,0.0,0.0,71,-99.99,,,-99.99,,2013-03-25 13:43:00,
2013-03-25 09:52:00,27.0,19.0,-100.00,ENE,69,1.0,2.0,69,-99.99,,,-99.99,,2013-03-25 13:52:00,
2013-03-25 10:03:00,30.0,19.0,-100.00,ESE,123,0.0,2.0,65,-99.99,,,-99.99,,2013-03-25 14:03:00,
2013-03-25 10:12:00,31.0,19.0,-100.00,East,87,1.0,2.0,62,-99.99,,,-99.99,,2013-03-25 14:12:00,
2013-03-25 10:22:00,31.0,20.0,-100.00,SSE,163,0.0,2.0,62,-99.99,,,-99.99,,2013-03-25 14:22:00,
2013-03-25 10:32:00,33.0,20.0,-100.00,WSW,249,0.0,2.0,58,-99.99,,,-99.99,,2013-03-25 14:32:00,
2013-03-25 10:43:00,36.0,23.0,-100.00,ENE,59,1.0,4.0,58,-99.99,,,-99.99,,2013-03-25 14:43:00,
2013-03-25 10:52:00,36.0,23.0,-100.00,South,170,1.0,2.0,60,-99.99,,,-99.99,,2013-03-25 14:52:00,
2013-03-25 11:03:00,36.0,23.0,-100.00,South,170,1.0,2.0,60,-99.99,,,-99.99,,2013-03-25 15:03:00,
2013-03-25 11:13:00,39.0,24.0,-100.00,ESE,103,1.0,2.0,53,-99.99,,,-99.99,,2013-03-25 15:13:00,
2013-03-25 11:23:00,39.0,24.0,-100.00,NNE,13,0.0,2.0,53,-99.99,,,-99.99,,2013-03-25 15:23:00,
2013-03-25 11:33:00,39.0,24.0,-100.00,NNE,13,0.0,2.0,53,-99.99,,,-99.99,,2013-03-25 15:33:00,
2013-03-25 11:43:00,38.0,24.0,-100.00,SSE,161,1.0,2.0,55,-99.99,,,-99.99,,2013-03-25 15:43:00,
2013-03-25 11:53:00,41.0,24.0,-100.00,WSW,240,0.0,2.0,50,-99.99,,,-99.99,,2013-03-25 15:53:00,
2013-03-25 12:03:00,41.0,23.0,-100.00,SSW,196,3.0,8.0,48,-99.99,,,-99.99,,2013-03-25 16:03:00,
2013-03-25 12:12:00,41.0,23.0,-100.00,SSW,196,3.0,8.0,48,-99.99,,,-99.99,,2013-03-25 16:12:00,
2013-03-25 12:23:00,39.0,22.0,-100.00,NE,37,4.0,10.0,51,-99.99,,,-99.99,,2013-03-25 16:23:00,
2013-03-25 12:33:00,40.0,22.0,-100.00,ESE,118,3.0,8.0,47,-99.99,,,-99.99,,2013-03-25 16:33:00,
2013-03-25 12:43:00,40.0,22.0,-100.00,ESE,118,3.0,8.0,47,-99.99,,,-99.99,,2013-03-25 16:43:00,
2013-03-25 12:52:00,42.0,22.0,-100.00,East,79,4.0,8.0,44,-99.99,,,-99.99,,2013-03-25 16:52:00,
2013-03-25 13:03:00,41.0,21.0,-100.00,NE,56,6.0,10.0,44,-99.99,,,-99.99,,2013-03-25 17:03:00,
2013-03-25 13:13:00,41.0,21.0,-100.00,ENE,57,8.0,15.0,44,-99.99,,,-99.99,,2013-03-25 17:13:00,
2013-03-25 13:24:00,41.0,21.0,-100.00,ENE,57,8.0,15.0,44,-99.99,,,-99.99,,2013-03-25 17:24:00,
2013-03-25 13:33:00,41.0,21.0,-100.00,East,100,5.0,8.0,45,-99.99,,,-99.99,,2013-03-25 17:33:00,
2013-03-25 13:43:00,40.0,21.0,-100.00,East,85,7.0,11.0,46,-99.99,,,-99.99,,2013-03-25 17:43:00,
2013-03-25 13:52:00,41.0,21.0,-100.00,East,93,4.0,10.0,44,-99.99,,,-99.99,,2013-03-25 17:52:00,
2013-03-25 14:04:00,41.0,22.0,-100.00,North,3,7.0,11.0,45,-99.99,,,-99.99,,2013-03-25 18:04:00,
2013-03-25 14:13:00,41.0,21.0,-100.00,NE,39,6.0,11.0,45,-99.99,,,-99.99,,2013-03-25 18:13:00,
2013-03-25 14:23:00,41.0,22.0,-100.00,East,79,6.0,11.0,45,-99.99,,,-99.99,,2013-03-25 18:23:00,
2013-03-25 14:33:00,40.0,21.0,-100.00,ENE,77,6.0,10.0,45,-99.99,,,-99.99,,2013-03-25 18:33:00,
2013-03-25 14:43:00,42.0,21.0,-100.00,East,80,6.0,11.0,43,-99.99,,,-99.99,,2013-03-25 18:43:00,
2013-03-25 14:52:00,42.0,21.0,-100.00,East,80,6.0,11.0,43,-99.99,,,-99.99,,2013-03-25 18:52:00,
2013-03-25 15:03:00,42.0,20.0,-100.00,ESE,116,7.0,13.0,40,-99.99,,,-99.99,,2013-03-25 19:03:00,
2013-03-25 15:13:00,43.0,20.0,-100.00,East,94,7.0,13.0,39,-99.99,,,-99.99,,2013-03-25 19:13:00,
2013-03-25 15:23:00,42.0,20.0,-100.00,ESE,103,5.0,10.0,40,-99.99,,,-99.99,,2013-03-25 19:23:00,
2013-03-25 15:33:00,42.0,21.0,-100.00,ENE,58,6.0,13.0,42,-99.99,,,-99.99,,2013-03-25 19:33:00,
2013-03-25 15:43:00,42.0,21.0,-100.00,ENE,58,6.0,13.0,42,-99.99,,,-99.99,,2013-03-25 19:43:00,
2013-03-25 15:52:00,42.0,21.0,-100.00,ENE,68,6.0,11.0,41,-99.99,,,-99.99,,2013-03-25 19:52:00,
2013-03-25 16:02:00,42.0,22.0,-100.00,NNE,23,6.0,11.0,44,-99.99,,,-99.99,,2013-03-25 20:02:00,
2013-03-25 16:12:00,42.0,22.0,-100.00,NNE,23,6.0,11.0,44,-99.99,,,-99.99,,2013-03-25 20:12:00,
2013-03-25 16:22:00,41.0,21.0,-100.00,NNE,27,7.0,13.0,44,-99.99,,,-99.99,,2013-03-25 20:22:00,
2013-03-25 16:32:00,41.0,22.0,-100.00,NE,35,4.0,10.0,44,-99.99,,,-99.99,,2013-03-25 20:32:00,
2013-03-25 16:42:00,41.0,20.0,-100.00,East,93,6.0,10.0,41,-99.99,,,-99.99,,2013-03-25 20:42:00,
2013-03-25 16:52:00,41.0,20.0,-100.00,ESE,104,4.0,8.0,42,-99.99,,,-99.99,,2013-03-25 20:52:00,
2013-03-25 17:03:00,41.0,21.0,-100.00,East,86,5.0,10.0,43,-99.99,,,-99.99,,2013-03-25 21:03:00,
2013-03-25 17:13:00,41.0,21.0,-100.00,NE,41,4.0,8.0,44,-99.99,,,-99.99,,2013-03-25 21:13:00,
2013-03-25 17:22:00,41.0,20.0,-100.00,NE,48,6.0,11.0,43,-99.99,,,-99.99,,2013-03-25 21:22:00,
2013-03-25 17:33:00,41.0,21.0,-100.00,ENE,59,5.0,11.0,44,-99.99,,,-99.99,,2013-03-25 21:33:00,
2013-03-25 17:43:00,41.0,21.0,-100.00,ENE,59,5.0,11.0,44,-99.99,,,-99.99,,2013-03-25 21:43:00,
2013-03-25 17:52:00,41.0,20.0,-100.00,ENE,76,7.0,10.0,43,-99.99,,,-99.99,,2013-03-25 21:52:00,
2013-03-25 18:03:00,41.0,21.0,-100.00,ENE,72,7.0,11.0,44,-99.99,,,-99.99,,2013-03-25 22:03:00,
2013-03-25 18:13:00,40.0,21.0,-100.00,NE,39,7.0,11.0,46,-99.99,,,-99.99,,2013-03-25 22:13:00,
2013-03-25 18:23:00,40.0,22.0,-100.00,NE,44,5.0,11.0,48,-99.99,,,-99.99,,2013-03-25 22:23:00,
2013-03-25 18:33:00,40.0,22.0,-100.00,ENE,65,6.0,13.0,47,-99.99,,,-99.99,,2013-03-25 22:33:00,
2013-03-25 18:42:00,40.0,22.0,-100.00,East,88,7.0,13.0,48,-99.99,,,-99.99,,2013-03-25 22:42:00,
2013-03-25 18:52:00,40.0,23.0,-100.00,NE,48,4.0,8.0,49,-99.99,,,-99.99,,2013-03-25 22:52:00,
2013-03-25 19:03:00,40.0,23.0,-100.00,NE,40,3.0,6.0,49,-99.99,,,-99.99,,2013-03-25 23:03:00,
2013-03-25 19:12:00,40.0,23.0,-100.00,NNE,18,1.0,4.0,49,-99.99,,,-99.99,,2013-03-25 23:12:00,
2013-03-25 19:23:00,39.0,23.0,-100.00,NE,50,0.0,0.0,51,-99.99,,,-99.99,,2013-03-25 23:23:00,
2013-03-25 19:32:00,39.0,23.0,-100.00,SE,145,0.0,0.0,51,-99.99,,,-99.99,,2013-03-25 23:32:00,
2013-03-25 19:43:00,39.0,23.0,-100.00,SE,145,0.0,0.0,51,-99.99,,,-99.99,,2013-03-25 23:43:00,
2013-03-25 19:52:00,39.0,23.0,-100.00,NNE,15,0.0,0.0,51,-99.99,,,-99.99,,2013-03-25 23:52:00,
2013-03-25 20:02:00,39.0,23.0,-100.00,SW,214,0.0,0.0,51,-99.99,,,-99.99,,2013-03-26 00:02:00,
2013-03-25 20:12:00,39.0,22.0,-100.00,WNW,289,0.0,2.0,51,-99.99,,,-99.99,,2013-03-26 00:12:00,
2013-03-25 20:22:00,39.0,22.0,-100.00,SE,126,3.0,6.0,51,-99.99,,,-99.99,,2013-03-26 00:22:00,
2013-03-25 20:32:00,39.0,22.0,-100.00,SE,126,3.0,6.0,51,-99.99,,,-99.99,,2013-03-26 00:32:00,
2013-03-25 20:42:00,38.0,23.0,-100.00,NE,36,3.0,8.0,55,-99.99,,,-99.99,,2013-03-26 00:42:00,
2013-03-25 20:52:00,37.0,24.0,-100.00,NNE,17,3.0,6.0,59,-99.99,,,-99.99,,2013-03-26 00:52:00,
2013-03-25 21:02:00,37.0,24.0,-100.00,NNE,17,3.0,6.0,59,-99.99,,,-99.99,,2013-03-26 01:02:00,
2013-03-25 21:12:00,37.0,24.0,-100.00,NNE,15,3.0,8.0,58,-99.99,,,-99.99,,2013-03-26 01:12:00,
2013-03-25 21:22:00,37.0,25.0,-100.00,North,9,5.0,10.0,59,-99.99,,,-99.99,,2013-03-26 01:22:00,
2013-03-25 21:32:00,37.0,25.0,-100.00,NNE,18,7.0,13.0,60,-99.99,,,-99.99,,2013-03-26 01:32:00,
2013-03-25 21:42:00,37.0,25.0,-100.00,SE,135,7.0,15.0,60,-99.99,,,-99.99,,2013-03-26 01:42:00,
2013-03-25 21:52:00,37.0,25.0,-100.00,NE,43,6.0,13.0,60,-99.99,,,-99.99,,2013-03-26 01:52:00,
2013-03-25 22:02:00,37.0,25.0,-100.00,NE,55,6.0,11.0,60,-99.99,,,-99.99,,2013-03-26 02:02:00,
2013-03-25 22:12:00,37.0,25.0,-100.00,NE,55,6.0,11.0,60,-99.99,,,-99.99,,2013-03-26 02:12:00,
2013-03-25 22:22:00,37.0,25.0,-100.00,NNE,13,6.0,11.0,61,-99.99,,,-99.99,,2013-03-26 02:22:00,
2013-03-25 22:32:00,37.0,25.0,-100.00,NE,55,7.0,13.0,61,-99.99,,,-99.99,,2013-03-26 02:32:00,
2013-03-25 22:43:00,37.0,24.0,-100.00,NNE,20,8.0,15.0,60,-99.99,,,-99.99,,2013-03-26 02:43:00,
2013-03-25 22:52:00,36.0,24.0,-100.00,NNE,18,4.0,10.0,61,-99.99,,,-99.99,,2013-03-26 02:52:00,
2013-03-25 23:02:00,36.0,25.0,-100.00,SSE,154,4.0,8.0,62,-99.99,,,-99.99,,2013-03-26 03:02:00,
2013-03-25 23:12:00,36.0,25.0,-100.00,SSE,148,5.0,10.0,63,-99.99,,,-99.99,,2013-03-26 03:12:00,
2013-03-25 23:22:00,36.0,25.0,-100.00,SSE,148,5.0,10.0,63,-99.99,,,-99.99,,2013-03-26 03:22:00,
2013-03-25 23:34:00,36.0,25.0,-100.00,ESE,110,4.0,8.0,63,-99.99,,,-99.99,,2013-03-26 03:34:00,
2013-03-25 23:42:00,36.0,25.0,-100.00,ESE,110,4.0,8.0,63,-99.99,,,-99.99,,2013-03-26 03:42:00,
2013-03-25 23:52:00,35.0,25.0,-100.00,ESE,123,5.0,10.0,65,-99.99,,,-99.99,,2013-03-26 03:52:00,